{"data":{"norad_id":49044,"epoch":"2026-09-20T03:25:16.706208Z","epoch_age_seconds":45144,"freshness":"FRESH","line1":"1 49044U 21066A   26263.14255447  .00007470  00000+0  14267-3 0  9997","line2":"2 49044  51.6307 190.1401 0004820 160.6694 199.4478 15.49188396586990","mean_motion":15.49188396,"eccentricity":0.000482,"inclination_deg":51.6307,"raan_deg":190.1401,"arg_perigee_deg":160.6694,"mean_anomaly_deg":199.4478,"bstar":0.00014267,"rev_number":58699,"period_min":92.951896858902,"perigee_km":415.82276725547,"apogee_km":422.37530279324,"semimajor_km":6797.2360350244,"source":"CELESTRAK","updated_at":"2026-09-20T09:00:28.693106Z"}}